BTO5107 SCES-SCSM

Flight info

Callsign BTO5107
Flight time N/A
Altitude 15000
Route D
Aircraft C172/L-VGDW/C

Departure

Time N/A
Airport Ricardo García Posada Airport (SCES)

Arrival

Time 2026-04-30 12:42
Airport Minsal Airport (SCSM)
Time Latitude Longitude Altitude Speed Heading
2026-04-30 12:01 -24.66134 -68.92485 14069 ft 120 kts 16°
2026-04-30 12:01 -24.65379 -68.92101 14070 ft 120 kts 16°
2026-04-30 12:02 -24.64629 -68.91720 14071 ft 120 kts 16°
2026-04-30 12:02 -24.63868 -68.91333 14073 ft 119 kts 16°
2026-04-30 12:02 -24.63118 -68.90951 14074 ft 119 kts 16°
2026-04-30 12:02 -24.62363 -68.90568 14075 ft 119 kts 16°
2026-04-30 12:03 -24.61610 -68.90185 14076 ft 119 kts 16°
2026-04-30 12:03 -24.60096 -68.89417 14079 ft 119 kts 15°
2026-04-30 12:03 -24.59344 -68.89035 14080 ft 119 kts 15°
2026-04-30 12:04 -24.58599 -68.88656 14081 ft 119 kts 15°
2026-04-30 12:04 -24.57837 -68.88269 14082 ft 119 kts 15°
2026-04-30 12:04 -24.57089 -68.87890 14083 ft 119 kts 15°
2026-04-30 12:04 -24.56335 -68.87507 14084 ft 119 kts 15°
2026-04-30 12:05 -24.55578 -68.87122 14086 ft 119 kts 15°
2026-04-30 12:05 -24.54830 -68.86743 14087 ft 119 kts 15°
2026-04-30 12:05 -24.54083 -68.86364 14088 ft 119 kts 15°
2026-04-30 12:05 -24.53321 -68.85978 14089 ft 119 kts 15°
2026-04-30 12:06 -24.52577 -68.85600 14090 ft 119 kts 15°
2026-04-30 12:06 -24.51817 -68.85215 14091 ft 119 kts 15°
2026-04-30 12:06 -24.51064 -68.84833 14092 ft 119 kts 15°
2026-04-30 12:06 -24.50313 -68.84452 14093 ft 119 kts 15°
2026-04-30 12:07 -24.49558 -68.84070 14094 ft 119 kts 15°
2026-04-30 12:07 -24.48810 -68.83690 14096 ft 119 kts 15°
2026-04-30 12:07 -24.48059 -68.83309 14097 ft 119 kts 15°
2026-04-30 12:07 -24.47299 -68.82925 14098 ft 119 kts 15°
2026-04-30 12:08 -24.46550 -68.82545 14098 ft 119 kts 15°
2026-04-30 12:08 -24.45799 -68.82164 14099 ft 119 kts 15°
2026-04-30 12:08 -24.45051 -68.81786 14100 ft 119 kts 15°
2026-04-30 12:08 -24.44291 -68.81400 14101 ft 119 kts 15°
2026-04-30 12:09 -24.43540 -68.81020 14102 ft 119 kts 15°
2026-04-30 12:09 -24.42795 -68.80643 14103 ft 119 kts 15°
2026-04-30 12:09 -24.42035 -68.80257 14104 ft 119 kts 15°
2026-04-30 12:09 -24.41289 -68.79881 14105 ft 119 kts 15°
2026-04-30 12:10 -24.40528 -68.79495 14106 ft 119 kts 15°
2026-04-30 12:10 -24.39783 -68.79118 14107 ft 119 kts 15°
2026-04-30 12:10 -24.39025 -68.78735 14108 ft 119 kts 15°
2026-04-30 12:10 -24.38280 -68.78357 14108 ft 119 kts 15°
2026-04-30 12:11 -24.37524 -68.77975 14109 ft 119 kts 15°
2026-04-30 12:11 -24.36769 -68.77593 14110 ft 119 kts 15°
2026-04-30 12:11 -24.36025 -68.77216 14111 ft 119 kts 15°
2026-04-30 12:11 -24.35264 -68.76832 14112 ft 119 kts 15°
2026-04-30 12:12 -24.34518 -68.76455 14112 ft 119 kts 15°
2026-04-30 12:12 -24.33766 -68.76074 14113 ft 119 kts 15°
2026-04-30 12:12 -24.33008 -68.75691 14114 ft 119 kts 15°
2026-04-30 12:12 -24.32263 -68.75314 14115 ft 119 kts 15°
2026-04-30 12:13 -24.31511 -68.74934 14115 ft 119 kts 15°
2026-04-30 12:13 -24.30752 -68.74551 14116 ft 119 kts 15°
2026-04-30 12:13 -24.30006 -68.74174 14117 ft 119 kts 15°
2026-04-30 12:13 -24.29246 -68.73790 14118 ft 119 kts 15°
2026-04-30 12:14 -24.28496 -68.73411 14118 ft 119 kts 15°
2026-04-30 12:14 -24.27741 -68.73029 14119 ft 119 kts 15°
2026-04-30 12:14 -24.26990 -68.72650 14120 ft 119 kts 15°
2026-04-30 12:14 -24.26235 -68.72269 14120 ft 119 kts 15°
2026-04-30 12:15 -24.25489 -68.71892 14121 ft 119 kts 15°
2026-04-30 12:15 -24.24733 -68.71511 14121 ft 119 kts 15°
2026-04-30 12:15 -24.23981 -68.71131 14122 ft 119 kts 15°
2026-04-30 12:15 -24.23225 -68.70750 14123 ft 119 kts 15°
2026-04-30 12:16 -24.22478 -68.70373 14123 ft 119 kts 15°
2026-04-30 12:16 -24.21726 -68.69993 14124 ft 119 kts 15°
2026-04-30 12:16 -24.20972 -68.69613 14124 ft 119 kts 15°
2026-04-30 12:16 -24.20219 -68.69233 14125 ft 119 kts 15°
2026-04-30 12:17 -24.18716 -68.68475 14126 ft 119 kts 15°
2026-04-30 12:17 -24.17963 -68.68095 14126 ft 119 kts 15°
2026-04-30 12:17 -24.17206 -68.67714 14127 ft 119 kts 15°
2026-04-30 12:18 -24.16455 -68.67335 14127 ft 119 kts 15°
2026-04-30 12:18 -24.15698 -68.66954 14127 ft 119 kts 15°
2026-04-30 12:18 -24.14950 -68.66576 14128 ft 119 kts 15°
2026-04-30 12:18 -24.14194 -68.66196 14128 ft 119 kts 15°
2026-04-30 12:19 -24.13445 -68.65819 14129 ft 119 kts 15°
2026-04-30 12:19 -24.12684 -68.65435 14129 ft 119 kts 15°
2026-04-30 12:19 -24.11938 -68.65059 14129 ft 119 kts 15°
2026-04-30 12:19 -24.11182 -68.64678 14130 ft 119 kts 15°
2026-04-30 12:20 -24.10431 -68.64301 14130 ft 119 kts 15°
2026-04-30 12:20 -24.09671 -68.63917 14131 ft 119 kts 15°
2026-04-30 12:20 -24.08925 -68.63542 14131 ft 119 kts 15°
2026-04-30 12:20 -24.08166 -68.63160 14131 ft 119 kts 15°
2026-04-30 12:21 -24.07416 -68.62783 14131 ft 119 kts 15°
2026-04-30 12:21 -24.06662 -68.62403 14132 ft 119 kts 15°
2026-04-30 12:21 -24.05911 -68.62026 14132 ft 119 kts 15°
2026-04-30 12:21 -24.05149 -68.61643 14132 ft 119 kts 15°
2026-04-30 12:22 -24.04399 -68.61265 14133 ft 119 kts 15°
2026-04-30 12:22 -24.03650 -68.60889 14133 ft 119 kts 15°
2026-04-30 12:22 -24.02888 -68.60507 14133 ft 119 kts 15°
2026-04-30 12:22 -24.02136 -68.60130 14133 ft 119 kts 15°
2026-04-30 12:23 -24.01383 -68.59753 14133 ft 119 kts 15°
2026-04-30 12:23 -24.00628 -68.59376 14133 ft 119 kts 15°
2026-04-30 12:23 -23.99884 -68.59003 14134 ft 119 kts 15°
2026-04-30 12:23 -23.99126 -68.58624 14134 ft 119 kts 15°
2026-04-30 12:24 -23.98372 -68.58247 14134 ft 119 kts 15°
2026-04-30 12:24 -23.97623 -68.57873 14134 ft 119 kts 15°
2026-04-30 12:24 -23.96869 -68.57497 14134 ft 119 kts 15°
2026-04-30 12:24 -23.96113 -68.57119 14134 ft 119 kts 15°
2026-04-30 12:25 -23.95333 -68.56735 14021 ft 127 kts 15°
2026-04-30 12:25 -23.94499 -68.56335 13884 ft 133 kts 15°
2026-04-30 12:25 -23.93624 -68.56061 13740 ft 132 kts
2026-04-30 12:25 -23.92704 -68.55920 13592 ft 133 kts
2026-04-30 12:26 -23.91785 -68.55795 13447 ft 134 kts
2026-04-30 12:26 -23.90862 -68.55674 13303 ft 135 kts
2026-04-30 12:26 -23.89930 -68.55596 13160 ft 134 kts 356°
2026-04-30 12:26 -23.89006 -68.55552 13025 ft 134 kts 356°
2026-04-30 12:27 -23.88071 -68.55512 12889 ft 134 kts 356°
2026-04-30 12:27 -23.87151 -68.55474 12755 ft 134 kts 357°
2026-04-30 12:27 -23.86283 -68.55052 12608 ft 147 kts 39°
2026-04-30 12:27 -23.85709 -68.54094 12465 ft 148 kts 43°
2026-04-30 12:28 -23.84972 -68.53347 12323 ft 144 kts 28°
2026-04-30 12:28 -23.84067 -68.52954 12176 ft 139 kts 11°
2026-04-30 12:28 -23.83140 -68.52668 12028 ft 139 kts
2026-04-30 12:28 -23.82204 -68.52390 11877 ft 139 kts
2026-04-30 12:29 -23.81274 -68.52118 11728 ft 139 kts
2026-04-30 12:29 -23.80339 -68.51846 11578 ft 139 kts
2026-04-30 12:29 -23.79404 -68.51575 11428 ft 139 kts
2026-04-30 12:29 -23.78597 -68.50960 11268 ft 149 kts 47°
2026-04-30 12:30 -23.77994 -68.50060 11116 ft 145 kts 34°
2026-04-30 12:30 -23.77106 -68.49628 10969 ft 139 kts 11°
2026-04-30 12:30 -23.76168 -68.49439 10820 ft 136 kts
2026-04-30 12:30 -23.75298 -68.49683 10678 ft 131 kts 328°
2026-04-30 12:31 -23.74480 -68.50105 10560 ft 132 kts 347°
2026-04-30 12:31 -23.73570 -68.50183 10457 ft 131 kts 354°
2026-04-30 12:31 -23.72651 -68.50216 10349 ft 131 kts 354°
2026-04-30 12:31 -23.71742 -68.50246 10240 ft 131 kts 354°
2026-04-30 12:32 -23.70833 -68.50278 10131 ft 131 kts 354°
2026-04-30 12:32 -23.69924 -68.50311 10024 ft 131 kts 354°
2026-04-30 12:32 -23.69005 -68.50346 9919 ft 131 kts 354°
2026-04-30 12:32 -23.68097 -68.50382 9817 ft 128 kts 355°
2026-04-30 12:33 -23.67321 -68.50406 9901 ft 88 kts 354°
2026-04-30 12:33 -23.66740 -68.50407 9775 ft 79 kts 354°
2026-04-30 12:33 -23.66201 -68.50404 9694 ft 74 kts 354°
2026-04-30 12:33 -23.65695 -68.50401 9631 ft 72 kts 354°
2026-04-30 12:34 -23.65201 -68.50397 9579 ft 70 kts 354°
2026-04-30 12:34 -23.64708 -68.50393 9532 ft 69 kts 354°
2026-04-30 12:34 -23.64231 -68.50389 9490 ft 69 kts 354°
2026-04-30 12:34 -23.63750 -68.50386 9451 ft 68 kts 354°
2026-04-30 12:35 -23.63276 -68.50384 9415 ft 68 kts 354°
2026-04-30 12:35 -23.62805 -68.50381 9382 ft 67 kts 354°
2026-04-30 12:35 -23.62339 -68.50379 9352 ft 67 kts 354°
2026-04-30 12:35 -23.61870 -68.50377 9324 ft 67 kts 354°
2026-04-30 12:36 -23.61404 -68.50375 9299 ft 66 kts 354°
2026-04-30 12:36 -23.60946 -68.50374 9277 ft 66 kts 354°
2026-04-30 12:36 -23.60485 -68.50372 9258 ft 66 kts 354°
2026-04-30 12:36 -23.60032 -68.50372 9241 ft 65 kts 354°
2026-04-30 12:37 -23.59577 -68.50336 9222 ft 68 kts 10°
2026-04-30 12:37 -23.59204 -68.49974 9200 ft 75 kts 51°
2026-04-30 12:37 -23.58954 -68.49520 9159 ft 68 kts 57°
2026-04-30 12:37 -23.58748 -68.49050 9100 ft 68 kts 63°
2026-04-30 12:38 -23.58606 -68.48560 9039 ft 68 kts 69°
2026-04-30 12:38 -23.58510 -68.48042 8972 ft 69 kts 74°
2026-04-30 12:38 -23.58450 -68.47520 8902 ft 70 kts 77°
2026-04-30 12:38 -23.58414 -68.46989 8829 ft 70 kts 80°
2026-04-30 12:39 -23.58394 -68.46456 8753 ft 70 kts 82°
2026-04-30 12:39 -23.58386 -68.45915 8676 ft 70 kts 83°
2026-04-30 12:39 -23.58385 -68.45383 8598 ft 70 kts 84°
2026-04-30 12:39 -23.58388 -68.44852 8522 ft 70 kts 85°
2026-04-30 12:40 -23.58395 -68.44315 8444 ft 70 kts 85°
2026-04-30 12:40 -23.58404 -68.43789 8367 ft 70 kts 86°
2026-04-30 12:40 -23.58414 -68.43256 8296 ft 69 kts 86°
2026-04-30 12:40 -23.58420 -68.42774 8272 ft 57 kts 86°
2026-04-30 12:41 -23.58466 -68.42340 8273 ft 56 kts 91°
2026-04-30 12:41 -23.58493 -68.41914 8283 ft 57 kts 85°
2026-04-30 12:41 -23.58495 -68.41482 8291 ft 58 kts 84°
2026-04-30 12:41 -23.58487 -68.41044 8260 ft 57 kts 88°
2026-04-30 12:42 -23.58498 -68.40629 8104 ft 54 kts 81°
2026-04-30 12:42 -23.58485 -68.40225 7945 ft 55 kts 87°
2026-04-30 12:42 -23.58462 -68.39793 7755 ft 58 kts 94°
2026-04-30 12:42 -23.58465 -68.39398 7615 ft 45 kts 91°
2026-04-30 12:43 -23.58466 -68.39120 7571 ft 25 kts 90°
2026-04-30 12:43 -23.58520 -68.39025 7571 ft 9 kts 90°
2026-04-30 12:43 -23.58520 -68.39019 7571 ft 0 kts 86°